Weather History for Winner, SD

Change the Weather History Date:

Wednesday, September 18, 2013

  Actual Average Record
Temperature  
Mean Temperature 83 °F 63 °F  
Max Temperature 98 °F 76 °F 98 °F (2013)
Min Temperature 67 °F 50 °F 40 °F (2010)
Degree Days  
Heating Degree Days 0 4  
Month to date heating degree days 14 50  
Since 1 July heating degree days 21 64  
Cooling Degree Days 18 2  
Month to date cooling degree days 183 83  
Year to date cooling degree days 974 889  
Growing Degree Days 32 (Base 50)    
Moisture  
Dew Point 59 °F    
Average Humidity 56    
Maximum Humidity 87    
Minimum Humidity 24    
Precipitation  
Precipitation 0.00 in 0.07 in 0.01 in (2007)
Month to date precipitation 0.32 1.20  
Year to date precipitation 16.31 18.20  
Sea Level Pressure  
Sea Level Pressure 29.58 in    
Wind  
Wind Speed 13 mph (SSW)    
Max Wind Speed 25 mph    
Max Gust Speed 29 mph    
Visibility 10 miles    
Events      
T = Trace of Precipitation, MM = Missing Value Source: NWS Daily Summary

Daily Weather History Graph

Daily Weather History Graph

Search for Another Location

Airport:

Trip Planner

Search our weather history database for the weather conditions in past years. The results will help you decide how hot, cold, wet, or windy it might be!

Date:

Astronomy

Sep. 18, 2013 Rise Set
Actual Time 7:22 AM CDT 7:43 PM CDT
Civil Twilight 6:53 AM CDT 8:12 PM CDT
Nautical Twilight 6:20 AM CDT 8:45 PM CDT
Astronomical Twilight 5:45 AM CDT 9:20 PM CDT
Moon 7:06 PM CDT (9/18) 6:26 AM CDT (9/18)
Length of Visible Light 13h 18m
Length of Day
12h 21m
Waxing Gibbous, 99% of the Moon is Illuminated
Sep 18
Waxing Gibbous
Sep 19
Full
Sep 26
Last Quarter
Oct 4
New
Oct 11
First Quarter

Hourly Weather History & Observations

Time (CDT) Temp. Heat Index Dew Point Humidity Pressure Visibility Wind Dir Wind Speed Gust Speed Precip Events Conditions
12:53 AM 71.1 °F - 64.9 °F 81% 29.65 in 10.0 mi South 19.6 mph - N/A   Clear
1:53 AM 71.1 °F - 64.9 °F 81% 29.64 in 10.0 mi South 16.1 mph - N/A   Clear
2:53 AM 71.1 °F - 64.9 °F 81% 29.62 in 10.0 mi South 18.4 mph - N/A   Clear
3:53 AM 70.0 °F - 64.0 °F 81% 29.62 in 10.0 mi South 16.1 mph - N/A   Clear
4:53 AM 69.1 °F - 64.0 °F 84% 29.61 in 10.0 mi SSW 13.8 mph - N/A   Clear
5:53 AM 69.1 °F - 63.0 °F 81% 29.58 in 10.0 mi SSW 17.3 mph - N/A   Clear
6:53 AM 68.0 °F - 63.0 °F 84% 29.59 in 10.0 mi SSW 18.4 mph 25.3 mph N/A   Clear
7:53 AM 66.9 °F - 62.1 °F 84% 29.60 in 10.0 mi South 15.0 mph - N/A   Clear
8:53 AM 70.0 °F - 62.1 °F 76% 29.60 in 10.0 mi South 11.5 mph - N/A   Clear
9:53 AM 75.0 °F - 63.0 °F 66% 29.61 in 10.0 mi South 12.7 mph - N/A   Clear
10:53 AM 81.0 °F 82.2 °F 63.0 °F 54% 29.61 in 10.0 mi SW 9.2 mph - N/A   Clear
11:53 AM 86.0 °F 86.3 °F 62.1 °F 44% 29.59 in 10.0 mi South 12.7 mph - N/A   Clear
12:53 PM 91.0 °F 90.9 °F 61.0 °F 36% 29.56 in 10.0 mi South 12.7 mph 21.9 mph N/A   Clear
1:53 PM 93.9 °F 93.2 °F 59.0 °F 31% 29.55 in 10.0 mi South 17.3 mph 23.0 mph N/A   Clear
2:53 PM 96.1 °F 94.8 °F 57.0 °F 27% 29.53 in 10.0 mi SW 10.4 mph 21.9 mph N/A   Clear
3:53 PM 97.0 °F 95.0 °F 55.0 °F 24% 29.51 in 10.0 mi SSW 10.4 mph - N/A   Clear
4:53 PM 97.0 °F 94.6 °F 54.0 °F 23% 29.51 in 10.0 mi SSW 9.2 mph - N/A   Clear
5:53 PM 97.0 °F 94.6 °F 53.1 °F 23% 29.50 in 10.0 mi SW 11.5 mph - N/A   Partly Cloudy
6:53 PM 93.9 °F 91.7 °F 54.0 °F 26% 29.50 in 10.0 mi SSW 8.1 mph - N/A   Clear
7:53 PM 86.0 °F 84.0 °F 53.1 °F 32% 29.52 in 10.0 mi SSW 6.9 mph - N/A   Clear
8:53 PM 84.9 °F - 51.1 °F 31% 29.53 in 10.0 mi SSW 6.9 mph - N/A   Clear
9:53 PM 82.9 °F 82.4 °F 57.0 °F 41% 29.54 in 10.0 mi SSW 8.1 mph - N/A   Clear
10:48 PM 78.8 °F - 53.6 °F 42% 29.63 in 10.0 mi NNW 15.0 mph - N/A   Partly Cloudy
10:53 PM 78.1 °F - 54.0 °F 43% 29.57 in 10.0 mi NNW 15.0 mph - N/A   Partly Cloudy
11:53 PM 72.0 °F - 57.9 °F 61% 29.61 in 10.0 mi NW 13.8 mph - N/A   Clear